Dewpoint
41 41 42 42 42 41 41 41 42 42 43 44 43 42 42 42 42 42 39 40 35 30 28 27 26 23 22 25 21 20 20 20 21 13 12 14 8 10 8 6 5 6 3 2 2 1 5 12 12 10 14 21 21 19
38 41 41 41 42 42 42 42 41 42 43 43 42 42 42 42 43 43 39 41 41 35 32 35 32 27 25 26 27 23 24 19 23 18 18 18 8 13 10 1 11 6 8 5 8 8 13 15 16 18 17 19 19 18
36 37 39 37 39 40 41 42 42 42 42 41 42 42 42 43 43 42 40 40 38 32 33 32 30 33 31 29 28 24 26 26 23 26 24 20 12 19 6 9 10 12 11 9 11 10 11 11 12 14 14 15 16 16
39 38 37 37 37 38 39 40 40 40 42 42 42 42 42 43 42 42 40 41 37 34 28 27 34 30 32 30 29 28 27 26 26 27 24 22 15 21 15 14 13 13 13 12 12 12 12 12 14 14 15 15 15 16
38 38 39 39 39 38 37 37 37 38 40 41 42 42 42 42 42 42 41 41 40 33 28 25 28 31 32 32 31 29 27 27 30 26 25 21 21 20 21 20 19 16 13 10 10 11 10 10 13 15 16 15 15 16
37 37 38 38 38 37 37 37 37 37 37 38 39 41 42 42 42 41 33 40 40 40 31 25 31 26 31 31 31 31 30 27 27 28 25 24 21 21 20 18 17 15 18 16 13 13 14 14 16 16 15 16 17 18
36 36 37 38 38 37 37 36 37 37 37 38 38 38 41 41 41 35 32 37 41 40 31 26 25 27 28 28 27 29 30 30 28 26 26 25 25 24 23 18 17 18 17 16 16 16 15 15 14 15 16 16 14 12
35 36 37 37 37 36 36 35 36 37 37 38 38 38 39 40 40 37 39 39 41 35 31 25 24 19 25 26 25 26 27 29 30 25 23 21 23 23 19 19 19 19 18 16 15 16 16 15 15 15 14 12 9 10
35 35 34 34 35 35 35 35 36 37 37 38 38 38 38 36 33 35 40 40 39 35 27 26 20 15 24 23 25 27 26 22 24 23 21 21 18 17 15 15 16 16 18 18 16 13 12 12 14 12 9 7 7 10
32 29 29 29 30 31 32 35 35 36 37 37 37 32 30 34 39 39 36 33 31 31 30 25 21 19 21 21 21 20 23 19 14 18 20 19 16 16 15 16 17 17 14 14 9 7 4 4 9 8 5 6 6 6
30 29 29 29 30 32 32 33 34 35 34 35 31 30 33 38 35 32 27 26 27 24 27 24 23 16 20 16 19 21 18 17 13 9 13 7 8 14 18 18 6 5 6 4 6 4 3 3 5 3 1 1 -0 -2
30 29 29 30 32 32 31 31 32 32 34 34 34 34 33 31 28 24 22 20 23 19 21 19 20 24 22 25 22 21 18 19 13 11 13 4 12 13 9 3 1 1 -1 -3 -1 -1 -2 -2 -3 -4 -5 -6 -7 -6
29 29 30 30 31 31 31 30 30 31 33 34 31 27 26 25 19 17 13 12 8 16 19 15 19 24 24 25 22 20 15 14 16 13 5 7 11 3 -1 -4 -7 -7 -7 -6 -7 -8 -8 -8 -10 -12 -12 -12 -13 -14
25 27 28 28 29 29 30 30 29 29 32 25 22 16 18 16 17 18 10 10 16 17 18 21 20 17 22 20 21 15 17 12 8 4 1 7 7 -1 -6 -8 -11 -12 -9 -9 -12 -13 -13 -13 -13 -15 -16 -17 -18 -19
26 26 26 26 28 29 28 29 30 30 29 22 22 12 15 11 8 2 3 11 13 18 22 20 20 21 18 18 20 15 9 7 4 1 6 4 -6 -8 -11 -13 -14 -16 -16 -17 -15 -16 -15 -17 -18 -20 -22 -23 -23 -23
25 27 29 30 28 27 28 29 30 31 29 23 21 16 5 7 6 3 3 8 13 19 20 22 18 16 15 17 13 10 7 -0 2 6 -3 -8 -14 -15 -15 -16 -17 -17 -18 -20 -22 -21 -18 -21 -23 -24 -28 -28 -26 -26
26 27 29 31 30 30 29 30 28 25 23 19 10 -1 7 15 15 9 7 12 14 17 14 17 13 11 16 13 11 11 3 3 -6 -8 -7 -11 -15 -18 -20 -20 -23 -25 -25 -25 -26 -27 -26 -27 -31 -30 -28 -25 -26 -22
20 26 33 29 29 24 18 17 19 17 9 4 8 1 0 0 2 6 6 12 13 15 16 16 16 11 10 8 7 4 -4 -10 -6 -8 -12 -15 -20 -20 -19 -22 -25 -26 -25 -26 -29 -30 -30 -31 -29 -25 -26 -22 -23 -19
26 26 29 29 28 19 14 10 10 8 -1 -2 -1 -0 -3 -4 0 1 2 7 11 12 12 16 14 12 13 6 3 -2 -4 -6 -10 -11 -15 -17 -19 -20 -22 -24 -23 -24 -19 -21 -27 -26 -26 -26 -25 -23 -20 -19 -19 -17
25 23 24 25 21 17 9 3 9 5 -3 -2 -1 -4 -2 -4 -7 -6 1 5 8 11 11 10 5 -5 -6 -11 -12 -9 -7 -8 -10 -12 -15 -15 -17 -23 -22 -23 -20 -19 -20 -25 -28 -22 -24 -23 -22 -21 -22 -19 -18 -12
19 20 21 15 10 6 3 1 -5 -4 -4 -7 -6 -3 -6 -4 -8 -3 0 -2 7 0 0 -10 -15 -16 -16 -17 -16 -10 -13 -9 -11 -11 -12 -14 -15 -17 -23 -24 -25 -25 -24 -25 -24 -23 -22 -25 -23 -22 -21 -17 -12 -9
14 18 15 14 5 0 -3 -1 -3 -5 -8 -13 -11 -11 -15 -14 -15 -14 -8 1 -8 -18 -18 -15 -15 -16 -17 -21 -21 -21 -20 -17 -15 -12 -13 -14 -16 -20 -24 -21 -23 -26 -26 -26 -26 -26 -25 -23 -20 -18 -14 -12 -9 -9
6 10 5 4 2 -3 -10 -3 -10 -8 -9 -13 -14 -13 -15 -19 -17 -9 -7 -15 -20 -21 -26 -24 -23 -23 -20 -22 -20 -20 -20 -17 -18 -17 -21 -20 -26 -25 -23 -26 -26 -26 -26 -25 -24 -23 -21 -15 -13 -11 -10 -9 -10 -10
-1 -11 -10 -10 -8 -13 -11 -14 -7 -12 -12 -15 -9 -12 -18 -16 -14 -7 -10 -20 -24 -20 -22 -23 -19 -18 -19 -19 -18 -19 -19 -19 -23 -24 -25 -27 -27 -27 -27 -26 -26 -26 -24 -22 -18 -17 -15 -13 -10 -11 -11 -13 -15 -14
-7 -22 -19 -24 -16 -14 -11 -10 -9 -8 -15 -16 -12 -11 -19 -21 -10 -9 -13 -17 -15 -16 -18 -20 -17 -15 -14 -16 -16 -20 -29 -26 -23 -28 -29 -30 -28 -27 -25 -24 -22 -18 -13 -15 -15 -13 -12 -12 -13 -13 -15 -16 -16 -17
-26 -29 -32 -34 -27 -23 -19 -15 -18 -18 -15 -15 -19 -20 -23 -17 -15 -22 -22 -22 -22 -21 -21 -23 -23 -24 -23 -23 -24 -27 -28 -34 -31 -26 -26 -28 -26 -23 -21 -17 -13 -13 -10 -12 -13 -14 -15 -14 -15 -16 -16 -17 -15 -16
-26 -34 -33 -33 -31 -30 -30 -29 -23 -19 -20 -22 -24 -21 -21 -23 -24 -24 -22 -22 -26 -30 -28 -28 -28 -27 -27 -28 -27 -29 -29 -29 -26 -22 -22 -21 -17 -15 -15 -15 -14 -13 -13 -13 -14 -14 -15 -15 -15 -16 -16 -16 -17 -17
-34 -36 -36 -35 -36 -37 -38 -35 -33 -32 -30 -29 -33 -29 -27 -28 -29 -29 -26 -23 -29 -30 -30 -31 -30 -28 -27 -23 -23 -22 -21 -19 -17 -16 -17 -14 -13 -14 -15 -15 -14 -2 -12 -14 -14 -14 -15 -16 -17 -17 -17 -16 -15 -15
-38 -36 -36 -35 -37 -34 -38 -37 -37 -36 -32 -34 -30 -25 -28 -27 -29 -27 -23 -22 -24 -24 -26 -27 -25 -24 -16 -11 -10 -10 -10 -12 -13 -15 -16 -14 -14 -15 -18 -19 -20 -19 -19 -18 -8 -5 -12 -13 -13 -14 -14 -13 -13 -18
-32 -35 -27 -23 -23 -28 -34 -40 -41 -44 -37 -35 -35 -29 -24 -20 -18 -18 -20 -21 -20 -22 -22 -19 -15 -13 -11 -10 -11 -11 -11 -12 -11 -13 -15 -17 -18 -23 -25 -23 -21 -19 -16 -17 -16 -17 -11 -16 -18 -25 -24 -23 -24 -23
-42 -44 -37 -33 -30 -34 -38 -42 -39 -40 -38 -35 -37 -32 -25 -25 -21 -17 -17 -18 -21 -20 -15 -12 -12 -12 -12 -11 -13 -12 -12 -15 -17 -18 -19 -23 -27 -25 -22 -18 -17 -19 -20 -21 -21 -24 -23 -26 -28 -27 -27 -25 -25 -23
-30 -33 -33 -32 -35 -45 -52 -49 -48 -40 -33 -28 -27 -29 -25 -23 -19 -17 -15 -16 -14 -15 -13 -13 -13 -15 -14 -14 -13 -14 -14 -15 -15 -14 -17 -17 -17 -14 -12 -11 -12 -14 -18 -18 -19 -20 -22 -24 -23 -23 -23 -24 -24 -25
-34 -35 -33 -29 -27 -28 -30 -31 -31 -33 -32 -27 -29 -30 -29 -25 -21 -16 -11 -15 -18 -19 -19 -18 -16 -16 -16 -15 -14 -13 -13 -14 -13 -5 -5 -4 -7 -5 -7 -7 -7 -11 -14 -16 -17 -17 -19 -21 -22 -23 -24 -24 -24 -23
Lifted_Index
7 7 7 7 7 7 7 7 6 6 6 6 6 7 7 7 7 7 7 7 8 8 8 8 8 8 8 7 7 7 7 7 7 6 5 5 5 5 5 5 5 5 5 5 4 4 4 5 5 4 3 3 3 3
7 6 6 7 7 7 6 6 6 6 6 6 6 6 6 6 6 6 7 7 7 7 7 7 7 7 7 7 7 7 7 6 6 6 6 5 5 6 5 5 5 5 5 5 5 5 4 4 4 3 3 3 3 3
6 6 6 6 6 6 6 6 6 6 6 6 6 6 6 6 5 6 6 6 6 6 7 7 7 6 7 7 6 6 6 6 6 6 6 6 6 6 5 5 5 6 6 5 5 4 4 3 2 2 2 3 3 3
6 6 6 6 6 6 6 6 6 6 6 5 5 5 5 5 5 5 5 5 6 6 6 6 6 6 6 6 6 5 5 5 5 5 5 5 6 5 5 4 5 5 6 5 4 3 2 2 2 2 2 3 3 3
5 5 5 5 6 6 6 6 6 6 5 5 5 4 4 4 4 4 4 4 5 5 5 5 6 6 6 5 5 5 5 5 5 5 5 5 5 4 4 3 4 4 4 3 2 2 1 1 2 2 2 2 3 3
4 5 5 5 5 6 6 6 6 5 5 5 5 4 4 3 3 3 3 3 4 3 3 4 5 5 5 5 5 5 4 4 4 4 3 4 3 3 2 2 3 3 3 2 2 1 1 1 2 2 2 2 2 3
4 4 4 5 5 5 6 6 6 5 5 5 5 4 3 3 3 3 3 3 3 2 2 2 2 3 4 4 4 4 4 3 3 2 2 2 2 2 1 2 2 2 2 1 1 1 1 2 2 2 2 2 2 3
4 4 4 5 5 5 5 5 5 5 5 5 4 4 3 3 3 3 3 2 2 1 1 1 1 1 3 3 4 4 3 2 2 2 2 2 1 1 1 2 2 2 1 1 1 1 1 2 2 2 2 2 2 3
4 4 4 5 5 5 5 5 5 5 4 4 4 4 4 3 3 3 3 2 1 1 0 0 0 1 2 2 2 3 2 2 1 1 1 1 1 2 2 2 1 1 1 1 1 1 1 1 2 2 2 2 3 3
4 4 5 5 5 5 5 5 4 4 4 4 4 4 4 4 3 2 2 1 1 0 1 1 1 1 1 1 2 2 2 1 1 1 1 2 2 2 2 2 1 1 1 1 1 1 1 1 2 2 2 3 3 3
4 4 5 5 5 5 4 4 4 4 4 4 4 3 3 3 2 2 1 1 1 1 1 2 2 2 1 1 1 1 1 1 1 1 1 2 3 2 2 1 1 1 1 1 1 1 1 2 2 2 3 3 3 3
4 4 4 5 5 4 4 4 4 4 4 4 4 3 3 2 2 1 1 1 1 1 2 2 2 2 2 1 1 1 1 1 1 1 1 2 3 2 1 1 1 1 1 1 1 2 2 2 2 3 3 3 3 3
4 4 5 5 5 4 4 4 4 4 4 4 4 3 3 2 1 1 1 2 2 2 2 2 2 1 1 1 1 1 1 1 1 1 1 2 2 2 1 1 1 1 1 2 2 2 2 2 3 3 3 3 3 3
5 5 5 5 5 5 5 5 4 4 4 4 4 3 3 2 2 2 2 2 2 2 1 1 1 1 1 1 1 1 1 1 1 1 1 2 2 1 1 1 2 2 2 2 2 2 2 2 3 3 3 4 4 4
5 5 5 5 5 5 5 5 4 4 4 4 4 3 3 3 3 2 2 2 1 1 1 1 0 0 0 1 1 1 1 1 1 1 1 1 1 1 1 2 2 2 2 2 2 3 2 2 2 3 4 5 6 6
6 6 5 5 5 5 5 4 4 4 4 4 4 3 3 3 3 2 2 2 1 1 1 0 0 0 0 0 0 0 0 1 1 1 1 1 1 1 1 2 2 2 2 2 3 3 3 3 3 4 5 7 8 8
7 6 6 5 5 5 5 4 4 4 3 4 4 4 3 3 3 2 2 2 1 1 1 0 0 0 0 0 0 0 1 1 1 1 1 1 1 1 2 2 2 3 3 3 3 3 4 5 5 6 7 9 10 11
8 7 6 5 5 5 5 4 4 3 3 3 3 3 3 3 3 2 2 2 2 1 1 1 0 0 0 0 1 1 1 1 1 1 1 1 2 2 2 2 3 3 3 4 4 5 6 7 8 8 9 11 12 13
8 7 6 5 5 4 4 4 3 2 2 2 2 2 2 2 2 2 2 2 2 1 1 1 1 1 1 1 1 1 1 1 1 1 2 2 2 3 3 3 4 4 5 5 6 7 8 9 10 11 12 13 13 14
8 8 6 5 5 4 3 3 3 2 2 2 2 2 2 2 2 2 2 2 1 1 1 1 1 1 1 1 2 2 2 2 2 2 2 2 3 4 4 5 6 6 6 7 7 9 10 11 12 13 14 14 15 15
9 8 7 5 4 4 3 3 2 2 1 1 1 1 1 1 1 1 1 1 1 1 1 1 1 2 2 2 2 2 2 2 2 2 3 3 4 5 6 7 8 8 8 8 9 10 11 12 14 15 15 15 16 16
8 7 6 5 4 3 3 3 2 1 1 1 1 1 1 1 1 1 1 1 1 1 2 2 2 3 3 3 4 4 4 4 4 4 4 5 6 6 8 9 9 9 9 10 11 12 13 14 15 16 16 16 16 16
7 6 5 4 3 3 3 2 2 1 1 1 1 1 1 1 1 1 1 1 2 2 3 3 3 4 4 4 5 5 5 5 5 6 7 7 8 9 9 10 11 11 11 12 13 14 14 15 16 16 16 16 16 16
6 5 4 3 3 2 2 2 2 1 1 0 0 0 0 1 1 1 1 1 2 3 4 4 5 5 5 5 5 6 7 8 8 8 9 10 10 10 11 12 12 13 13 14 14 15 15 16 16 16 16 16 16 16
5 4 3 3 2 2 2 2 1 1 0 0 1 1 1 1 1 1 2 2 3 4 5 6 6 6 5 6 6 8 9 10 10 10 11 11 11 11 12 12 13 14 15 15 15 15 15 15 16 16 16 16 16 16
4 4 3 3 3 2 2 2 1 1 1 1 1 1 2 2 2 2 3 4 6 7 8 8 8 7 7 8 9 10 11 12 12 12 12 13 13 12 12 12 13 14 15 15 15 15 15 15 15 15 16 16 16 16
4 4 4 4 4 3 2 2 2 2 1 2 2 2 2 2 2 4 6 8 9 10 11 11 11 10 10 11 11 12 13 14 13 13 14 14 14 14 14 13 13 14 15 16 15 15 15 15 15 15 15 15 16 16
5 5 5 5 5 4 3 3 3 3 3 3 3 2 2 3 5 7 9 11 12 13 13 13 13 13 12 13 13 14 14 14 14 13 13 14 14 15 15 15 15 15 16 16 16 16 16 15 15 15 15 15 15 16
7 7 6 5 5 5 5 5 5 6 6 6 5 5 6 8 10 11 13 13 14 13 13 13 13 13 13 13 14 14 14 14 13 12 12 12 13 14 15 16 16 16 16 16 16 16 16 16 15 15 15 15 15 15
9 9 8 6 6 6 7 8 9 9 10 10 9 9 9 11 14 15 15 14 14 13 13 13 13 14 13 13 13 14 14 14 14 13 13 13 14 15 16 16 16 16 16 16 16 16 16 15 15 15 15 15 15 15
11 10 8 7 7 9 10 11 11 11 12 11 11 11 11 12 14 16 16 15 15 14 14 14 14 14 14 14 14 14 15 16 16 16 15 15 15 16 16 16 16 16 16 15 15 15 15 15 15 14 14 14 14 14
11 10 9 8 9 10 11 11 11 11 11 11 11 11 12 12 13 15 17 17 16 15 15 15 15 16 16 16 16 16 16 17 17 17 16 16 16 16 16 16 16 16 15 15 15 15 14 14 14 14 14 14 14 14
10 10 9 9 9 10 11 11 10 10 10 10 11 12 12 11 12 15 17 18 17 16 16 16 17 17 17 17 17 17 17 17 17 17 16 16 16 16 16 16 16 15 15 15 15 14 14 14 14 14 14 14 14 14